Location: Madrid
(40.4000°N, 3.6830°W)
Time: 13:16:27
(UTC+02:00)

ISS - Pass Details

Date: 31 May 2020
Orbit: 417 x 419 km, 51.6° (Epoch: 31 May)

Event Time Altitude Azimuth Distance (km) Brightness Sun altitude
Rises 22:21:27 0° 311° (NW) 2,366 2.6 -7.6°
Reaches altitude 10° 22:23:43 10° 323° (NW) 1,500 0.6 -8.0°
Maximum altitude 22:26:44 30° 27° (NNE) 774 -2.3 -8.4°
Drops below altitude 10° 22:29:46 10° 91° (E) 1,496 -1.4 -8.9°
Enters shadow 22:30:08 - 94° (E) 1,630 -1.3 -8.9°
